Skip Page Navigation
NASA JPL Caltech
NASA Logo - Jet Propulsion Laboratory + View the NASA Portal
+ Center for Near-Earth Object Studies
JPL Home Earth Solar System Stars & Galaxies Technology
JPL Solar System Dynamics
BODIES ORBITS EPHEMERIDES TOOLS PHYSICAL DATA DISCOVERY FAQ SITE MAP
IMPORTANT: The SSD Announcement email list is now available. Major changes are coming in the near future, including possible hostname and/or URL changes. To be notified of such changes, subscribe to this email list.

Please visit this page for more details.


JPL Small-Body Database Browser
Search: [ help ]  
97650 (2000 FN2)
Classification: Main-belt Asteroid          SPK-ID: 2097650
Ephemeris | Orbit Diagram | Orbital Elements | Mission Design | Physical Parameters | Discovery Circumstances | Close-Approach Data ]

[ show orbit diagram ]
Orbital Elements at Epoch 2458600.5 (2019-Apr-27.0) TDB
Reference: JPL 20 (heliocentric ecliptic J2000)
 Element Value Uncertainty (1-sigma)   Units 
e .1374811579232534 4.2103e-08  
a 3.159050097154915 2.3703e-08 au
q 2.724740231860492 1.3306e-07 au
i 5.581448319354959 5.6726e-06 deg
node 184.6751240982707 4.6793e-05 deg
peri 73.6177350465574 5.1008e-05 deg
M 97.46775297095316 2.0099e-05 deg
tp 2458045.246058977925
(2017-Oct-18.74605898)
0.00011366 TDB
period 2050.846692110752
5.61
2.3081e-05
6.319e-08
d
yr
n .1755372556051396 1.9756e-09 deg/d
Q 3.593359962449339 2.6961e-08 au
  Orbit Determination Parameters
   # obs. used (total)      708  
   data-arc span      6806 days (18.63 yr)  
   first obs. used      2000-03-25  
   last obs. used      2018-11-12  
   planetary ephem.      DE431  
   SB-pert. ephem.      SB431-N16  
   condition code      0  
   norm. resid. RMS      .54557  
   source      ORB  
   producer      Otto Matic  
   solution date      2019-Jul-13 09:17:59  

Additional Information
 Earth MOID = 1.71637 au 
 Jupiter MOID = 1.48697 au 
 T_jup = 3.183 
[ show covariance matrix ]

Ephemeris | Orbit Diagram | Orbital Elements | Mission Design | Physical Parameters | Discovery Circumstances | Close-Approach Data ]

Physical Parameter Table
Parameter Symbol Value Units Sigma Reference Notes
absolute magnitude H 14.5   n/a MPO449596  
diameter diameter 5.248 km 0.712 urn:nasa:pds:neowise_diameters_albedos::2.0[mainbelt] (http://adsabs.harvard.edu/abs/2011ApJ...741...68M)  
geometric albedo albedo 0.122   0.019 urn:nasa:pds:neowise_diameters_albedos::2.0[mainbelt] (http://adsabs.harvard.edu/abs/2011ApJ...741...68M)  

97650 (2000 FN2)          Discovered 2000-Mar-25 by Spacewatch at Kitt Peak
Reference: 20050224/Numbers.arcLast Updated: 2005-02-28

[ show close-approach data ]
Alternate Designations
 2000 FN2 = 2001 PY59 
Ephemeris | Orbit Diagram | Orbital Elements | Mission Design | Physical Parameters | Discovery Circumstances | Close-Approach Data ]
ABOUT SSD CREDITS/AWARDS PRIVACY/COPYRIGHT GLOSSARY LINKS
FirstGov 2019-Oct-21 16:37 UT
(server date/time)  
NASA Home Page
Site Manager:   Ryan S. Park
Webmaster  Alan B. Chamberlin